User: anonymous
Location: Vancouver
(49.2500°N, 123.1330°W)
Time: 18:18:05
(UTC-07:00)
Language:

Cosmos 1939 Rocket - Orbit

View from above orbital plane
View from above orbital plane
View from above satellite
View from above satellite

Ground track
Ground track

The orbit data is extracted from the following two-line orbital elements,

1 19046U 88032B   14211.11190924  .00000432  00000-0  39620-4 0  9372
2 19046 097.6497 264.9132 0033375 319.0634 040.8084 14.99614703414634
Epoch (UTC): 30 July 2014 02:41:08
Eccentricity: 0.0033375
inclination: 97.6497°
perigee height: 545 km
apogee height: 591 km
right ascension of ascending node: 264.9132°
argument of perigee: 319.0634°
revolutions per day: 14.99614703
mean anomaly at epoch: 40.8084°
orbit number at epoch: 41463

The dashed part of the orbit path shows where the satellite is in the earth's shadow,  

DLR